Sedalia, MO

8:42 AM CDT on September 20, 2017 (GMT -0500)
Sedalia Memorial

Weather History for KDMO - February, 2014

Change the Weather History Date:

Tuesday, February 4, 2014

  Actual Average Record
Temperature  
Mean Temperature 22 °F 34 °F  
Max Temperature 25 °F 43 °F 74 °F (1962)
Min Temperature 19 °F 25 °F -8 °F (1985)
Degree Days  
Heating Degree Days 43 31  
Month to date heating degree days 177 127  
Since 1 July heating degree days 3328 2942  
Cooling Degree Days 0 0  
Month to date cooling degree days 0 0  
Year to date cooling degree days 0 0  
Moisture  
Dew Point 19 °F    
Average Humidity 87    
Maximum Humidity 92    
Minimum Humidity 81    
Precipitation  
Precipitation 0.25 in 0.07 in 1.00 in (1952)
Month to date precipitation 0.68 0.27  
Year to date precipitation 0.90 1.94  
Sea Level Pressure  
Sea Level Pressure 30.11 in    
Wind  
Wind Speed 12 mph (NE)    
Max Wind Speed 18 mph    
Max Gust Speed 25 mph    
Visibility 2 miles    
Events Fog , Snow    
T = Trace of Precipitation, MM = Missing Value Source: NWS Daily Summary

Daily Weather History Graph

Daily Weather History Graph

Search for Another Location

Airport or City:

Trip Planner

Search our weather history database for the weather conditions in past years. The results will help you decide how hot, cold, wet, or windy it might be!

Date:

Astronomy

Feb. 04, 2014 Rise Set
Actual Time 7:15 AM CST 5:38 PM CST
Civil Twilight 6:47 AM CST 6:05 PM CST
Nautical Twilight 6:16 AM CST 6:37 PM CST
Astronomical Twilight 5:45 AM CST 7:08 PM CST
Moon 9:58 AM CST (2/4) 11:28 PM CST (2/4)
Length of Visible Light 11h 18m
Length of Day
10h 22m
Waxing Crescent, 29% of the Moon is Illuminated
Feb 4
Waxing Crescent
Feb 6
First Quarter
Feb 14
Full
Feb 22
Last Quarter
Mar 1
New

Hourly Weather History & Observations

Time (CST) Temp. Windchill Dew Point Humidity Pressure Visibility Wind Dir Wind Speed Gust Speed Precip Events Conditions
12:53 AM 24.1 °F 16.0 °F 19.9 °F 84% 30.28 in 10.0 mi East 6.9 mph - N/A   Overcast
1:53 AM 24.1 °F 15.2 °F 19.0 °F 81% 30.26 in 10.0 mi East 8.1 mph - N/A   Scattered Clouds
2:53 AM 24.1 °F 15.2 °F 19.0 °F 81% 30.27 in 10.0 mi East 8.1 mph - N/A   Overcast
3:53 AM 24.1 °F 15.2 °F 19.0 °F 81% 30.26 in 10.0 mi East 8.1 mph - N/A   Overcast
4:53 AM 24.1 °F 16.0 °F 19.0 °F 81% 30.27 in 10.0 mi ENE 6.9 mph - N/A   Overcast
5:40 AM 24.1 °F 16.0 °F 19.9 °F 84% 30.25 in 2.5 mi ENE 6.9 mph - 0.00 in Snow Light Snow
5:46 AM 24.1 °F 15.2 °F 19.9 °F 84% 30.25 in 1.2 mi ENE 8.1 mph - 0.00 in Snow Light Snow
5:53 AM 24.1 °F 16.0 °F 19.9 °F 84% 30.28 in 1.2 mi ENE 6.9 mph - 0.00 in Snow Light Snow
6:11 AM 23.0 °F 13.1 °F 19.9 °F 88% 30.24 in 1.0 mi ENE 9.2 mph - 0.01 in Snow Light Snow
6:31 AM 23.0 °F 13.9 °F 19.9 °F 88% 30.24 in 0.8 mi ENE 8.1 mph - 0.02 in Snow Light Snow
6:49 AM 23.0 °F 13.1 °F 19.4 °F 86% 30.23 in 0.5 mi East 9.2 mph - 0.04 in Fog , Snow Snow
6:53 AM 23.0 °F 13.1 °F 19.9 °F 88% 30.27 in 0.5 mi East 9.2 mph - 0.04 in Fog , Snow Snow
7:14 AM 23.0 °F 13.9 °F 19.9 °F 88% 30.23 in 1.2 mi East 8.1 mph - 0.01 in Snow Light Snow
7:20 AM 23.0 °F 13.1 °F 19.9 °F 88% 30.23 in 1.8 mi East 9.2 mph - 0.01 in Snow Light Snow
7:23 AM 23.0 °F 13.1 °F 19.9 °F 88% 30.22 in 2.0 mi East 9.2 mph - 0.01 in Snow Light Snow
7:39 AM 23.0 °F 11.7 °F 19.9 °F 88% 30.21 in 1.5 mi ENE 11.5 mph - 0.02 in Snow Light Snow
7:53 AM 23.0 °F 12.4 °F 19.9 °F 88% 30.25 in 1.5 mi East 10.4 mph - 0.02 in Snow Light Snow
8:14 AM 23.0 °F 12.4 °F 19.9 °F 88% 30.19 in 1.2 mi East 10.4 mph - 0.00 in Snow Light Snow
8:26 AM 24.1 °F 13.1 °F 19.9 °F 84% 30.20 in 2.0 mi East 11.5 mph - 0.00 in Snow Light Snow
8:43 AM 24.1 °F 14.4 °F 21.0 °F 88% 30.21 in 1.2 mi East 9.2 mph - 0.01 in Snow Light Snow
8:50 AM 24.8 °F 14.0 °F 21.2 °F 86% 30.20 in 1.0 mi East 11.5 mph - 0.01 in Snow Light Snow
8:53 AM 24.1 °F 13.7 °F 21.0 °F 88% 30.23 in 1.0 mi East 10.4 mph - 0.01 in Snow Light Snow
9:03 AM 24.1 °F 13.7 °F 21.0 °F 88% 30.20 in 0.5 mi East 10.4 mph - 0.01 in Fog , Snow Snow
9:26 AM 24.1 °F 13.1 °F 21.9 °F 91% 30.19 in 0.5 mi ENE 11.5 mph - 0.02 in Fog , Snow Snow
9:53 AM 25.0 °F 12.6 °F 21.9 °F 88% 30.20 in 0.5 mi ENE 15.0 mph - 0.02 in Fog , Snow Snow
10:03 AM 24.1 °F 12.5 °F 21.0 °F 88% 30.16 in 0.5 mi ENE 12.7 mph - 0.01 in Fog , Snow Snow
10:17 AM 25.0 °F 11.7 °F 21.0 °F 85% 30.15 in 1.0 mi ENE 17.3 mph 25.3 mph 0.01 in Snow Light Snow
10:32 AM 25.0 °F 13.1 °F 21.0 °F 85% 30.15 in 1.2 mi ENE 13.8 mph - 0.01 in Snow Light Snow
10:40 AM 25.0 °F 13.6 °F 21.0 °F 85% 30.15 in 1.0 mi ENE 12.7 mph - 0.01 in Snow Light Snow
10:53 AM 24.1 °F 12.5 °F 21.0 °F 88% 30.18 in 0.5 mi East 12.7 mph 21.9 mph 0.01 in Fog , Snow Snow
11:07 AM 24.1 °F 12.0 °F 21.0 °F 88% 30.14 in 0.5 mi ENE 13.8 mph - 0.01 in Fog , Snow Snow
11:22 AM 24.1 °F 12.0 °F 21.0 °F 88% 30.14 in 0.8 mi ENE 13.8 mph - 0.01 in Snow Light Snow
11:39 AM 24.1 °F 11.5 °F 21.0 °F 88% 30.14 in 1.0 mi East 15.0 mph 20.7 mph 0.01 in Snow Light Snow
11:46 AM 24.1 °F 12.0 °F 21.0 °F 88% 30.13 in 0.8 mi East 13.8 mph 21.9 mph 0.01 in Snow Light Snow
11:53 AM 24.1 °F 11.0 °F 19.9 °F 84% 30.17 in 0.8 mi East 16.1 mph - 0.01 in Snow Light Snow
12:02 PM 24.1 °F 11.0 °F 21.0 °F 88% 30.12 in 0.2 mi East 16.1 mph - 0.01 in Fog , Snow Heavy Snow
12:14 PM 24.1 °F 13.1 °F 21.0 °F 88% 30.10 in 0.2 mi ENE 11.5 mph 23.0 mph 0.01 in Fog , Snow Heavy Snow
12:53 PM 24.1 °F 13.1 °F 21.0 °F 88% 30.10 in 0.2 mi ENE 11.5 mph - 0.02 in Fog , Snow Snow
1:27 PM 24.1 °F 12.0 °F 19.9 °F 84% 30.03 in 0.5 mi ENE 13.8 mph - 0.02 in Fog , Snow Snow
1:45 PM 24.1 °F 11.0 °F 19.9 °F 84% 30.03 in 1.0 mi East 16.1 mph - 0.02 in Snow Light Snow
1:53 PM 24.1 °F 11.5 °F 19.9 °F 84% 30.05 in 1.2 mi ENE 15.0 mph - 0.02 in Snow Light Snow
2:04 PM 24.1 °F 10.1 °F 19.9 °F 84% 30.00 in 1.2 mi ENE 18.4 mph 24.2 mph 0.00 in Snow Light Snow
2:13 PM 24.1 °F 10.6 °F 19.9 °F 84% 29.98 in 1.8 mi ENE 17.3 mph - 0.01 in Snow Light Snow
2:30 PM 24.1 °F 13.7 °F 21.0 °F 88% 30.02 in 1.2 mi ENE 10.4 mph - 0.01 in Snow Light Snow
2:39 PM 24.1 °F 15.2 °F 21.0 °F 88% 30.03 in 1.0 mi ENE 8.1 mph - 0.01 in Snow Light Snow
2:49 PM 24.8 °F 14.0 °F 21.2 °F 86% 30.01 in 0.8 mi ENE 11.5 mph - 0.01 in Snow Light Snow
2:53 PM 24.1 °F 12.5 °F 21.0 °F 88% 30.04 in 0.5 mi ENE 12.7 mph - 0.01 in Fog , Snow Snow
3:53 PM 24.1 °F 13.7 °F 19.9 °F 84% 30.06 in 0.8 mi NE 10.4 mph - 0.02 in Snow Light Snow
4:06 PM 24.1 °F 12.5 °F 21.0 °F 88% 30.00 in 0.5 mi NE 12.7 mph - 0.00 in Fog , Snow Light Snow
4:53 PM 23.0 °F 10.6 °F 19.9 °F 88% 30.03 in 0.8 mi NE 13.8 mph - 0.01 in Snow Light Snow
5:08 PM 23.0 °F 10.1 °F 19.0 °F 85% 29.98 in 0.8 mi NE 15.0 mph - 0.00 in Snow Light Snow
5:43 PM 23.0 °F 12.4 °F 19.0 °F 85% 29.99 in 1.2 mi NE 10.4 mph - 0.00 in Snow Light Snow
5:53 PM 21.9 °F 9.8 °F 19.0 °F 89% 30.02 in 1.0 mi NE 12.7 mph - 0.00 in Snow Light Snow
6:08 PM 21.9 °F 10.4 °F 19.0 °F 89% 29.99 in 1.0 mi NE 11.5 mph - 0.00 in Snow Light Snow
6:19 PM 21.9 °F 8.7 °F 19.0 °F 89% 29.98 in 0.8 mi NE 15.0 mph - 0.01 in Snow Light Snow
6:30 PM 21.9 °F 8.7 °F 19.0 °F 89% 29.98 in 1.2 mi NNE 15.0 mph - 0.01 in Snow Light Snow
6:32 PM 21.9 °F 8.7 °F 19.0 °F 89% 29.99 in 1.5 mi NE 15.0 mph - 0.01 in Snow Light Snow
6:41 PM 21.9 °F 9.8 °F 18.0 °F 85% 29.99 in 2.5 mi NE 12.7 mph - 0.01 in Snow Light Snow
6:48 PM 21.2 °F 8.9 °F 17.6 °F 86% 30.00 in 3.0 mi NE 12.7 mph - 0.01 in Snow Light Snow
6:49 PM 21.9 °F 9.8 °F 18.0 °F 85% 30.04 in 3.0 mi NE 12.7 mph - 0.01 in Snow Light Snow
7:02 PM 21.9 °F 10.4 °F 18.0 °F 85% 30.02 in 3.0 mi NNE 11.5 mph - 0.00 in Snow Light Snow
7:16 PM 21.9 °F 9.8 °F 18.0 °F 85% 30.02 in 2.5 mi NNE 12.7 mph - 0.00 in Snow Light Snow
7:44 PM 21.9 °F 9.8 °F 19.0 °F 89% 30.02 in 2.5 mi NNE 12.7 mph - 0.01 in Snow Light Snow
7:51 PM 21.2 °F 8.9 °F 17.6 °F 86% 30.02 in 3.0 mi NNE 12.7 mph - 0.01 in Snow Light Snow
7:53 PM 21.0 °F 8.6 °F 18.0 °F 88% 30.06 in 3.0 mi NNE 12.7 mph - 0.01 in Snow Light Snow
8:02 PM 21.0 °F 7.1 °F 18.0 °F 88% 30.02 in 2.5 mi NNE 16.1 mph - 0.00 in Snow Light Snow
8:10 PM 21.0 °F 8.6 °F 18.0 °F 88% 30.02 in 2.5 mi NNE 12.7 mph - 0.00 in Snow Light Snow
8:17 PM 21.0 °F 8.6 °F 17.1 °F 85% 30.02 in 2.5 mi NNE 12.7 mph - 0.00 in Snow Light Snow
8:31 PM 21.0 °F 8.6 °F 17.1 °F 85% 30.03 in 2.5 mi NNE 12.7 mph - 0.01 in Snow Light Snow
8:39 PM 21.0 °F 8.6 °F 17.1 °F 85% 30.04 in 3.0 mi NNE 12.7 mph - 0.01 in Snow Light Snow
8:53 PM 19.9 °F 7.9 °F 17.1 °F 89% 30.09 in 3.0 mi NNE 11.5 mph - 0.01 in Snow Light Snow
9:01 PM 19.9 °F 9.3 °F 17.1 °F 89% 30.05 in 2.0 mi North 9.2 mph - 0.01 in Snow Light Snow
9:13 PM 19.9 °F 7.9 °F 17.1 °F 89% 30.05 in 1.8 mi North 11.5 mph - 0.01 in Snow Light Snow
9:23 PM 19.9 °F 8.6 °F 16.0 °F 85% 30.05 in 1.8 mi North 10.4 mph - 0.02 in Snow Light Snow
9:42 PM 19.0 °F 5.0 °F 16.0 °F 88% 30.05 in 1.2 mi North 15.0 mph - 0.02 in Snow Light Snow
9:53 PM 19.0 °F 4.5 °F 15.1 °F 85% 30.09 in 1.2 mi NNE 16.1 mph - 0.02 in Snow Light Snow
10:00 PM 19.0 °F 5.0 °F 15.1 °F 85% 30.06 in 1.8 mi NNE 15.0 mph - 0.00 in Snow Light Snow
10:09 PM 19.0 °F 4.5 °F 15.1 °F 85% 30.06 in 2.5 mi NNE 16.1 mph - 0.00 in Snow Light Snow
10:27 PM 19.0 °F 4.5 °F 15.1 °F 85% 30.05 in 1.2 mi NNE 16.1 mph - 0.00 in Snow Light Snow
10:36 PM 19.0 °F 5.0 °F 15.1 °F 85% 30.05 in 1.0 mi NNE 15.0 mph - 0.01 in Snow Light Snow
10:51 PM 19.4 °F 5.5 °F 15.8 °F 86% 30.06 in 1.2 mi North 15.0 mph - 0.01 in Snow Light Snow
10:53 PM 19.0 °F 5.6 °F 15.1 °F 85% 30.10 in 1.2 mi North 13.8 mph - 0.01 in Snow Light Snow
11:04 PM 19.0 °F 5.6 °F 15.1 °F 85% 30.06 in 1.2 mi North 13.8 mph - 0.00 in Snow Light Snow
11:14 PM 19.0 °F 4.5 °F 15.1 °F 85% 30.06 in 1.8 mi North 16.1 mph - 0.00 in Snow Light Snow
11:22 PM 19.0 °F 4.5 °F 15.1 °F 85% 30.06 in 2.5 mi North 16.1 mph - 0.00 in Snow Light Snow
11:25 PM 19.0 °F 4.0 °F 14.0 °F 81% 30.06 in 3.0 mi North 17.3 mph - 0.00 in Snow Light Snow
11:53 PM 19.0 °F 4.0 °F 14.0 °F 81% 30.11 in 4.0 mi North 17.3 mph - 0.00 in Snow Light Snow